Location: Dackenheim
(49.5215°N, 8.1854°E)
Time: 08:56:40
(UTC+00:00)

PCSat - Visible Passes

Search period start: 17 March 2026 00:00
Search period end: 27 March 2026 00:00
Orbit: 780 x 790 km, 67.0° (Epoch: 16 March)

Date Brightness Start Highest point End Pass type
(mag) Time Alt. Az. Time Alt. Az. Time Alt. Az.
17 Mar 12.1 01:07:51 13° NNW 01:08:50 13° NNW 01:11:28 10° NNE visible
17 Mar 12.2 02:51:49 10° NNW 02:54:33 14° NNE 02:57:18 10° NE visible
17 Mar 11.3 04:34:45 10° NNW 04:39:36 32° NE 04:44:25 10° ESE visible
17 Mar 12.1 22:55:17 15° NNE 22:55:17 15° NNE 22:56:12 10° NNE visible
18 Mar 12.1 00:35:51 15° NNW 00:36:05 15° NNW 00:39:05 10° NNE visible
18 Mar 12.3 02:19:23 10° NNW 02:21:47 13° N 02:24:12 10° NE visible
18 Mar 11.6 04:02:28 10° NNW 04:07:01 26° NE 04:11:33 10° E visible
18 Mar 12.1 22:23:11 14° NNE 22:23:11 14° NNE 22:23:55 10° NNE visible
19 Mar 12.1 00:03:44 16° NNW 00:03:44 16° NNW 00:06:46 10° NNE visible
19 Mar 12.3 01:46:50 10° NNW 01:49:00 12° N 01:51:10 10° NNE visible
19 Mar 11.9 03:30:13 10° NNW 03:34:25 22° NNE 03:38:35 10° E visible
19 Mar 12.0 21:50:55 14° NNE 21:50:55 14° NNE 21:51:36 10° NNE visible
19 Mar 12.0 23:31:28 18° NNW 23:31:28 18° NNW 23:34:29 10° NNE visible
20 Mar 12.4 01:14:08 10° NNW 01:16:13 12° N 01:18:17 10° NNE visible
20 Mar 12.1 02:57:56 10° NNW 03:01:45 19° NNE 03:05:33 10° ENE visible
20 Mar 10.2 04:40:48 10° NNW 04:46:11 59° NE 04:51:30 10° SE visible
20 Mar 11.8 21:18:25 15° NNE 21:18:25 15° NNE 21:19:16 10° NE visible
20 Mar 11.8 22:58:56 21° NNW 22:58:56 21° NNW 23:02:12 10° NNE visible
21 Mar 12.4 00:41:15 10° NNW 00:43:25 12° N 00:45:35 10° NNE visible
21 Mar 12.2 02:25:39 10° NNW 02:29:03 17° NNE 02:32:28 10° ENE visible
21 Mar 10.7 04:08:30 10° NNW 04:13:44 46° NE 04:18:55 10° ESE visible
21 Mar12.319:04:50NE19:04:50NE18:52:56SSEvisible
21 Mar 11.4 20:45:18 20° NE 20:45:18 20° NE 20:46:55 10° NE visible
21 Mar 11.5 22:25:45 26° NNW 22:25:45 26° NNW 22:29:56 10° NNE visible
22 Mar 12.4 00:08:14 10° NW 00:10:38 13° N 00:13:02 10° NNE visible
22 Mar 12.3 01:53:19 10° NNW 01:56:20 15° NNE 01:59:20 10° NE visible
22 Mar 11.1 03:36:12 10° NNW 03:41:14 37° NE 03:46:13 10° ESE visible
22 Mar 11.3 18:26:37 10° ESE 18:26:58 10° E 18:27:19 10° E visible
22 Mar 9.5 20:03:51 10° SSW 20:09:09 61° ESE 20:14:30 10° NE visible
22 Mar 11.2 21:47:59 10° WSW 21:52:49 32° NW 21:57:39 10° NNE visible
22 Mar 12.3 23:35:07 10° NW 23:37:52 14° NNW 23:40:36 10° NNE visible
23 Mar 12.4 01:20:57 10° NNW 01:23:34 13° NNE 01:26:12 10° NE visible
23 Mar 11.4 03:03:56 10° NNW 03:08:41 30° NE 03:13:24 10° E visible
23 Mar 9.6 04:47:02 10° NW 04:52:26 67° WSW 04:57:45 10° SSE visible
23 Mar 9.8 19:31:46 10° S 19:36:53 45° ESE 19:42:02 10° NE visible
23 Mar 10.8 21:15:13 10° WSW 21:20:17 39° NW 21:25:23 10° NNE visible
23 Mar 12.3 23:01:58 10° NW 23:05:06 15° NNW 23:08:15 10° NNE visible
24 Mar 12.5 00:48:29 10° NNW 00:50:48 13° N 00:53:07 10° NNE visible
24 Mar 11.7 02:31:40 10° NNW 02:36:06 25° NNE 02:40:30 10° E visible
24 Mar 9.6 04:14:39 10° NW 04:20:05 89° WSW 04:25:30 10° SSE visible
24 Mar 10.1 18:59:52 10° S 19:04:40 34° ESE 19:09:29 10° NE visible
24 Mar 10.4 20:42:33 10° WSW 20:47:48 50° NW 20:53:05 10° NNE visible
24 Mar 12.1 22:28:51 10° WNW 22:32:23 17° NNW 22:35:56 10° NNE visible
25 Mar 12.5 00:15:53 10° NNW 00:18:00 12° N 00:20:07 10° NNE visible
25 Mar 12.0 01:59:23 10° NNW 02:03:28 21° NNE 02:07:31 10° ENE visible
25 Mar 9.9 03:42:18 10° NNW 03:47:43 71° NE 03:53:06 10° SE visible
25 Mar 10.5 18:28:10 10° SSE 18:32:29 25° ESE 18:36:49 10° NE visible
25 Mar 9.9 20:10:00 10° SW 20:15:21 65° NW 20:20:46 10° NNE visible
25 Mar 12.0 21:55:46 10° WNW 21:59:42 20° NNW 22:03:39 10° NNE visible
25 Mar 12.6 23:43:07 10° NNW 23:45:12 12° N 23:47:17 10° NNE visible
26 Mar 12.2 01:27:06 10° NNW 01:30:47 18° NNE 01:34:28 10° ENE visible
26 Mar 10.3 03:09:57 10° NNW 03:15:18 54° NE 03:20:35 10° SE visible
26 Mar 9.6 19:37:33 10° SW 19:42:58 84° NW 19:48:25 10° NE visible
26 Mar 11.8 21:22:46 10° W 21:27:04 23° NNW 21:31:22 10° NNE visible
26 Mar 12.5 23:10:11 10° NNW 23:12:24 12° N 23:14:38 10° NNE visible
